Погода в Воздвиженском

Россия / Ярославская область     57°23′21″N   38°03′27″E
темп.,
°C
ветер,
м/с
пор.,
м/с
влажн.,
%
обл.,
%
осадки,
мм/ч
давл.,
гПа
погр.,
м
6 марта, сб
сб600:00−13з239165 0.0 101327
03:00−14зсз339434 0.0 101529
06:00−13зсз239686 0.0 101528
09:00−11сз249591 0.1 1015203
12:00−9зсз248997 0.1 1016420
15:00−7з358598 0.1 1014737
18:00−10юз338961 0.0 101323
21:00−12ююз479031 0.0 1011103
7 марта, вс
вс700:00−9ююз6128872 0.0 1007315
03:00−7ююз7149286 0.1 1003717
06:00−6ююз81493100 1.2 998847
09:00−5ююз81394100 1.9 994938
12:00−4ююз71294100 1.4 990920
15:00−3ю5996100 3.6 988673
18:00−6сз111792100 3.7 9891026
21:00−8зсз51283100 4.3 991514
8 марта, пн
пн800:00−13з478867 0.0 99198
03:00−15з479043 0.0 992102
06:00−15зсз4109467 0.0 993224
09:00−10сз6109383 0.3 994490
12:00−7ссз6989100 0.3 997745
15:00−8ссз61088100 0.5 1000868
18:00−10ссз51092100 0.1 1003622
21:00−13ссз5119298 0.2 1007488
9 марта, вт
вт900:00−15ссз4109590 0.0 1009269
03:00−18сз499791 0.1 1011227
06:00−22сз479997 0.0 1014133
09:00−21ссз479571 0.0 1016259
12:00−18сз348970 0.0 1017380
15:00−15сз348781 0.0 1017463
18:00−19сз229454 0.0 101720
21:00−22с129731 0.0 101820
10 марта, ср
ср1000:00−23св22992 0.0 101820
03:00−25ссв221001 0.0 101919
06:00−27ссв221000 0.0 101919
09:00−24св22970 0.0 102092
12:00−18всв238545 0.0 1019351
15:00−15в227726 0.0 1018458
18:00−18вюв23890 0.0 101620
21:00−20юв369427 0.0 1016131